QZS-2 (MICHIBIKI-2)

Last updated on Fri Dec 12 2025 00:02:50 GMT+0000 (Coordinated Universal Time)

1 42738U 17028A 25345.58936832 -.00000196 00000+0 00000+0 0 9990 2 42738 39.7161 245.9005 0757751 269.4633 279.1342 1.00283351 5740
UTC large
Height (km)
Speed (km/s)
/
Latitude / Longitude
Inclination (degrees)
Orbital Period (minutes)
Azimuth
Elevation
Range (km)
Doppler Factor

Next 0 passes for location: London (51.5072 / 0.1276)

Sorry there are no passes over London.